Temp
84 86 87 86 88 88 88 89 87 85 86 86 85 84 82 84 84 81 82 80 80 84
83 83 85 85 84 87 86 89 87 87 86 86 86 85 83 86 83 82 82 82 80 82
84 84 85 85 84 84 86 85 86 87 87 87 86 86 84 85 84 82 84 85 81 82
83 84 84 85 85 85 86 84 85 86 86 87 86 86 84 84 85 83 83 84 83 83
83 83 84 84 85 86 85 86 86 86 86 86 87 87 85 85 87 85 84 85 84 84
83 83 84 85 86 86 85 86 87 86 85 86 87 86 86 86 86 86 86 86 85 85
82 82 85 85 85 85 85 86 86 86 86 87 87 87 87 86 86 86 87 87 86 86
83 83 83 83 84 85 85 86 86 86 86 87 88 90 87 87 86 85 86 86 86 87
80 80 80 81 82 83 84 84 84 84 85 86 89 77 71 78 88 87 86 85 86 87
78 79 81 81 82 81 81 82 82 83 84 84 86 71 68 69 84 86 87 86 86 88
76 77 77 77 78 79 81 81 81 82 82 83 85 70 66 67 82 85 85 86 87 86
79 75 79 78 78 80 80 80 81 82 81 81 82 66 64 68 82 84 84 86 86 86
72 74 75 77 77 80 81 81 84 83 84 77 82 67 62 66 84 83 85 85 85 71
72 72 74 75 77 78 79 81 82 82 83 83 81 81 61 59 82 85 86 86 87 89
MSLP
1016.98 1017.07 1017.44 1017.81 1018.01 1018.28 1018.46 1018.72 1018.90 1019.21 1019.30 1019.56 1019.83 1020.06 1020.33 1020.47 1020.65 1020.82 1020.96 1021.13 1021.26 1021.12
1016.58 1016.87 1017.01 1017.42 1017.88 1018.05 1018.35 1018.39 1018.63 1018.84 1018.89 1019.17 1019.45 1019.72 1020.04 1020.11 1020.32 1020.60 1020.83 1020.96 1021.09 1020.96
1016.03 1016.49 1016.72 1017.11 1017.43 1017.64 1017.86 1018.12 1018.35 1018.60 1018.64 1018.77 1018.98 1019.27 1019.65 1019.93 1020.08 1020.30 1020.43 1020.50 1020.63 1020.73
1015.40 1016.06 1016.42 1016.65 1017.04 1017.30 1017.50 1017.82 1017.92 1018.13 1018.35 1018.52 1018.73 1018.90 1019.32 1019.54 1019.64 1019.74 1019.89 1020.05 1020.17 1020.21
1014.94 1015.45 1015.86 1016.10 1016.40 1016.79 1017.04 1017.22 1017.46 1017.80 1017.99 1018.10 1018.26 1018.46 1018.65 1018.83 1018.87 1019.10 1019.20 1019.32 1019.49 1019.40
1014.23 1014.77 1015.04 1015.52 1015.86 1016.30 1016.57 1016.75 1016.91 1017.28 1017.53 1017.59 1017.73 1017.96 1018.15 1018.23 1018.28 1018.43 1018.49 1018.62 1018.71 1018.63
1013.33 1013.88 1014.26 1014.80 1015.35 1015.71 1016.03 1016.25 1016.53 1016.80 1017.02 1017.17 1017.31 1017.45 1017.62 1017.74 1017.79 1017.83 1017.92 1018.00 1018.06 1018.11
1012.91 1013.41 1013.91 1014.22 1014.66 1015.15 1015.55 1015.76 1015.93 1016.28 1016.47 1016.58 1016.78 1016.84 1017.06 1017.27 1017.32 1017.33 1017.31 1017.34 1017.41 1017.43
1012.59 1013.14 1013.44 1013.81 1014.17 1014.63 1014.95 1015.16 1015.45 1015.63 1015.83 1015.96 1015.96 1015.98 1016.45 1016.77 1016.64 1016.66 1016.65 1016.50 1016.47 1016.59
1011.83 1012.41 1012.65 1013.01 1013.41 1013.72 1014.11 1014.47 1014.62 1014.80 1015.03 1015.13 1015.22 1015.44 1015.72 1016.06 1016.28 1015.97 1015.72 1015.62 1015.57 1015.52
1011.67 1012.19 1012.21 1012.57 1012.63 1013.06 1013.33 1013.58 1013.73 1013.87 1014.09 1014.25 1014.25 1014.54 1014.87 1015.17 1015.40 1015.26 1014.99 1014.81 1014.67 1014.63
1011.78 1012.04 1012.03 1012.01 1012.27 1012.37 1012.48 1012.65 1012.80 1012.89 1013.00 1013.20 1013.27 1013.56 1013.88 1014.41 1014.62 1014.36 1013.99 1013.81 1013.69 1013.73
1011.93 1012.02 1011.93 1011.87 1011.81 1011.73 1011.83 1011.83 1012.04 1011.78 1011.87 1012.03 1012.25 1012.54 1012.94 1013.46 1013.52 1013.16 1012.92 1012.74 1012.67 1012.78
1011.47 1011.58 1011.65 1011.75 1011.77 1011.66 1011.46 1011.37 1011.10 1011.04 1011.09 1011.22 1011.44 1011.53 1011.84 1012.34 1012.61 1012.09 1011.79 1011.49 1011.29 1011.35
Wind_Speed
11 8 8 10 7 7 8 7 7 8 7 7 7 5 5 4 4 3 4 4 3 2
11 10 8 10 8 7 7 7 7 7 8 8 7 6 5 4 4 4 4 3 4 3
12 11 9 8 10 10 8 9 8 9 8 8 7 7 6 5 5 5 4 4 4 4
13 12 10 9 9 10 9 8 9 9 9 9 8 8 8 7 6 7 6 6 6 7
14 13 13 11 10 9 9 8 10 9 9 9 9 9 10 10 8 9 8 8 7 8
15 15 15 13 11 9 8 8 9 10 10 10 9 8 10 11 11 10 10 10 9 9
15 15 15 12 11 11 11 10 9 10 11 11 10 10 10 10 11 11 10 10 11 11
13 12 11 11 13 12 11 12 12 11 11 11 10 10 11 11 11 12 12 12 12 12
11 11 12 12 12 12 13 13 12 13 14 13 11 11 11 13 12 13 13 13 13 13
11 12 12 12 13 13 13 12 14 14 15 16 16 12 13 14 14 15 15 15 14 14
9 10 8 9 11 12 11 13 13 14 14 15 14 15 16 17 17 15 17 17 17 16
10 8 10 11 12 12 10 11 13 14 14 15 15 14 17 14 15 16 17 16 16 17
3 4 6 9 9 9 12 13 12 14 14 14 15 13 15 15 12 14 13 14 15 15
4 4 5 7 8 9 10 13 13 14 13 14 14 15 15 17 13 12 12 13 12 12
Wind_Direction
197 191 199 199 196 199 201 205 203 197 191 189 191 189 189 202 226 214 224 221 227 247
197 199 196 195 200 204 210 207 212 216 196 194 197 192 188 213 211 219 228 222 212 236
203 206 198 197 205 206 202 205 202 210 210 202 204 203 202 208 202 216 224 234 220 236
199 206 199 196 213 216 211 209 211 213 215 214 215 212 216 227 224 220 225 230 237 249
201 203 211 206 205 211 218 214 219 222 221 224 224 226 226 231 233 229 235 242 241 251
204 206 212 215 208 212 216 223 227 223 230 228 233 237 238 239 238 242 242 245 248 256
202 209 211 212 214 214 215 217 225 233 236 238 242 243 244 242 244 245 248 249 249 252
207 209 212 208 218 226 224 225 225 231 235 238 240 242 241 244 245 247 252 254 255 253
194 197 203 211 216 223 229 229 229 231 237 240 243 236 215 238 251 253 255 258 256 255
189 203 210 213 217 221 227 231 232 235 236 239 242 225 217 216 246 257 256 255 258 262
183 205 201 207 206 221 225 231 231 234 234 237 241 220 216 219 237 250 253 255 257 257
224 222 219 219 223 228 226 230 233 232 232 233 243 222 217 214 241 250 252 254 253 251
276 241 232 239 238 238 234 239 241 243 239 236 243 228 214 206 239 249 253 255 254 238
18 326 289 273 264 264 254 253 252 252 251 248 245 246 209 202 232 243 249 251 256 253